Commit Graph

  • c0cf4377a2 Bump tar from 6.1.14 to 6.2.1 dependabot/npm_and_yarn/tar-6.2.1 dependabot[bot] 2024-04-11 08:46:42 +00:00
  • 53a0bf6120 Bump vite from 4.3.4 to 4.5.3 dependabot/npm_and_yarn/vite-4.5.3 dependabot[bot] 2024-04-03 19:33:36 +00:00
  • 0103e11617 Bump ip from 2.0.0 to 2.0.1 dependabot/npm_and_yarn/ip-2.0.1 dependabot[bot] 2024-02-20 22:40:26 +00:00
  • c0b000051d Bump postcss from 8.4.23 to 8.4.31 dependabot/npm_and_yarn/postcss-8.4.31 dependabot[bot] 2023-10-07 18:42:29 +00:00
  • 2a4f81a5df fix: MaybePromise type plugin-resolution-support kaj 2023-09-19 13:29:06 -08:00
  • 0d55a99dd5 fix: comment kaj 2023-09-19 13:20:53 -08:00
  • ca0831fe05 feat: plugin getStableDiffusionAllowedResolutions kaj 2023-09-19 13:19:42 -08:00
  • 64abc0ef34 Bump protobufjs from 6.11.3 to 6.11.4 dependabot/npm_and_yarn/protobufjs-6.11.4 dependabot[bot] 2023-08-16 01:30:48 +00:00
  • f3b7d2048e Clarify build steps tauri Ezekiel Wotring 2023-07-29 19:28:47 -08:00
  • 4469313106 TODO Ezekiel Wotring 2023-07-28 14:31:49 -08:00
  • d842066f51 inline comfy output display kaj 2023-07-24 19:41:16 -08:00
  • e9657bb20f workflows kaj 2023-07-24 17:01:14 -08:00
  • 0a92760725 make sidebars layout effects kaj 2023-07-23 14:15:04 -08:00
  • 753eb570b7 generation ETA kaj 2023-07-23 14:12:31 -08:00
  • 44aac3087d Update Cargo.toml kaj 2023-07-23 13:40:14 -08:00
  • 3317206d3e fix linux builds kaj 2023-07-23 13:35:37 -08:00
  • 0065f05d3b progress, handle cached nodes kaj 2023-07-23 13:29:07 -08:00
  • d44d5d1d8f remove unused crate kaj 2023-07-22 12:59:17 -08:00
  • b867894c19 settings system & movable comfy path kaj 2023-07-22 12:57:43 -08:00
  • f7fdd8202d Update comfy_windows.yml kaj 2023-07-22 03:45:56 -08:00
  • 12a086302c fix link kaj 2023-07-22 03:40:29 -08:00
  • 47b4fa31e0 switch to fork of comfyui kaj 2023-07-22 03:34:10 -08:00
  • 61d872b37f fix inputs (assume forked comfyui) kaj 2023-07-22 02:26:07 -08:00
  • 5ed8642175 dont remove git files kaj 2023-07-22 01:50:01 -08:00
  • 8bb42328d6 fix stylesheets kaj 2023-07-21 17:16:23 -08:00
  • 110c8dcf08 convert to single custom node & bug fixes kaj 2023-07-21 16:49:10 -08:00
  • 69d381aef6 versions in settings & bug fixes kaj 2023-07-21 10:40:36 -08:00
  • d710f32f70 working inference by default kaj 2023-07-20 16:42:40 -08:00
  • ecaf1a9ae3 Update README.md kaj 2023-07-20 14:03:08 -08:00
  • 2dadc6f5ec banner kaj 2023-07-20 13:55:42 -08:00
  • fbf24d80b4 readme changes and history passthrough kaj 2023-07-20 13:54:00 -08:00
  • c359a44be6 correct running checks kaj 2023-07-20 11:44:11 -08:00
  • e7089b8a7b generation requests return images kaj 2023-07-20 11:39:21 -08:00
  • 384e226a1d Bump word-wrap from 1.2.3 to 1.2.4 dependabot/npm_and_yarn/word-wrap-1.2.4 dependabot[bot] 2023-07-20 11:25:40 +00:00
  • 4d435a4d6d better stdout, model and sampler options kaj 2023-07-19 18:03:59 -08:00
  • f4a9d4e4af capture comfyui stdout/stderr kaj 2023-07-19 16:08:34 -08:00
  • bef5fe60f3 handle more cases kaj 2023-07-19 14:15:53 -08:00
  • 4881e96a22 disable draft kaj 2023-07-19 13:04:14 -08:00
  • 2b9e34dcda Update build.yml stablestudio-v0.1.0 kaj 2023-07-19 12:44:40 -08:00
  • 1dc1fad664 tauri build kaj 2023-07-19 12:40:06 -08:00
  • 896e91818f fix fetching comfyui assets in builds kaj 2023-07-18 16:41:36 -08:00
  • 8d363baa58 temp download link kaj 2023-07-14 22:46:28 -08:00
  • 54d703c38e Update comfy_windows.yml kaj 2023-07-14 22:10:28 -08:00
  • f8adbd1e60 Update comfy_windows.yml kaj 2023-07-14 22:09:43 -08:00
  • e111ca023c test s3 kaj 2023-07-14 20:57:52 -08:00
  • 7174ae2ab3 Update comfy_windows.yml kaj 2023-07-14 16:45:53 -08:00
  • e35446e9ef PoC comfyui plugin backend kaj 2023-07-14 14:13:46 -08:00
  • 1fd566802d dont launch browser kaj 2023-07-13 18:59:07 -08:00
  • 508173cbb3 launch comfy with tab in UI kaj 2023-07-13 18:51:55 -08:00
  • 5646d76c3e Update comfy_windows.yml kaj 2023-07-13 16:33:22 -08:00
  • f07733c227 compress better kaj 2023-07-13 16:31:32 -08:00
  • 6fcdee3da0 Update comfy_windows.yml kaj 2023-07-13 16:23:15 -08:00
  • fad621417d needs ref kaj 2023-07-13 15:33:45 -08:00
  • 3800549123 check file size kaj 2023-07-13 15:25:06 -08:00
  • d10af830f0 try this (github tags & releases are confusing) kaj 2023-07-13 15:23:05 -08:00
  • 8c704abcb6 Update comfy_windows.yml kaj 2023-07-13 15:10:36 -08:00
  • 0785bc4751 Update comfy_windows.yml kaj 2023-07-13 14:56:27 -08:00
  • 75c7b7e51e Update comfy_windows.yml kaj 2023-07-13 14:45:19 -08:00
  • 14dc64e8b1 Update comfy_windows.yml kaj 2023-07-13 14:38:14 -08:00
  • bfd60288d3 Update comfy_windows.yml kaj 2023-07-13 14:37:28 -08:00
  • 39da8e3bb5 Create comfy_windows.yml kaj 2023-07-13 14:33:10 -08:00
  • 58075b422e spike out setup flow logic kaj 2023-07-12 14:36:01 -08:00
  • e0f787c4d7 attempt to package comfyui kaj 2023-07-12 10:56:31 -08:00
  • bee673ec1a Bump semver from 5.7.1 to 5.7.2 dependabot/npm_and_yarn/semver-5.7.2 dependabot[bot] 2023-07-11 23:21:54 +00:00
  • 158ccf298b integrate tauri kaj 2023-07-10 10:28:44 -08:00
  • 76772d7b9a Merge pull request #76 from jtydhr88/webui-plugin-bug-fix main Ezekiel Wotring 2023-05-31 18:30:05 -08:00
  • 4ae2e1766e webui plugin: check empty str jtydhr88 2023-05-31 13:55:51 -04:00
  • 62c9d968d6 Merge branch 'main' into better-plugin-dx better-plugin-dx kaj 2023-05-24 10:13:05 -08:00
  • 552ddb4a3d Merge pull request #24 from jtydhr88/webui-plugin Conner Ruhl 2023-05-24 10:34:33 -05:00
  • 3dc0e66cc4 Merge branch 'main' into webui-plugin Conner Ruhl 2023-05-24 10:29:47 -05:00
  • 9f35bf3d66 Create README.md Conner Ruhl 2023-05-24 10:22:59 -05:00
  • 5beb7fceb6 List first-party plugins Conner Ruhl 2023-05-24 10:18:10 -05:00
  • 8951fd7a71 Wording tweaks Conner Ruhl 2023-05-24 10:06:36 -05:00
  • 562685e245 read image info from api jtydhr88 2023-05-24 08:45:49 -04:00
  • 981036a51d fix to get generated images jtydhr88 2023-05-23 20:46:25 -04:00
  • 5cc7eaf5c0 fix comment kaj 2023-05-23 14:31:03 -08:00
  • de681e7b9f refactor kaj 2023-05-23 14:26:18 -08:00
  • 25f2bcd955 Merge pull request #40 from Stability-AI/devcontainers Stephan Auerhahn 2023-05-23 10:09:19 -07:00
  • 6ac5f78eea Remove images Conner Ruhl 2023-05-23 11:50:24 -05:00
  • e7d1fb71b5 More readme tweaks Conner Ruhl 2023-05-23 11:48:50 -05:00
  • 85c3ff7f8f Update thanks link Conner Ruhl 2023-05-23 11:41:22 -05:00
  • e9b649b2eb Merge branch 'webui-plugin' of https://github.com/jtydhr88/StableStudio into webui-plugin Conner Ruhl 2023-05-23 11:40:43 -05:00
  • 8478fc6e92 Update README Conner Ruhl 2023-05-23 11:40:22 -05:00
  • 4d93006b7e read seed for existing images jtydhr88 2023-05-22 22:56:03 -04:00
  • 2f4c155325 Merge branch 'main' of https://github.com/Stability-AI/StableStudio into webui-plugin Conner Ruhl 2023-05-22 17:02:16 -05:00
  • 53ec45f6c2 Update README Conner Ruhl 2023-05-22 17:01:24 -05:00
  • 59fe8542f2 add a setting for history image count, and improve generated date jtydhr88 2023-05-22 17:43:47 -04:00
  • 95c9d88b54 Merge pull request #57 from Stability-AI/readme-tweaks Ezekiel Wotring 2023-05-22 13:09:56 -08:00
  • e52da0f863 Update README.md Conner Ruhl 2023-05-22 16:08:57 -05:00
  • f87e36598b add upscale support jtydhr88 2023-05-22 16:50:11 -04:00
  • 1f662ad34c header tweaks kaj 2023-05-22 09:44:28 -08:00
  • 72fecfbdbf fix some grammar kaj 2023-05-22 09:42:40 -08:00
  • e3e58b6707 better readme kaj 2023-05-22 09:35:59 -08:00
  • 7d73a79671 add load existing images by extension on webui jtydhr88 2023-05-21 22:13:40 -04:00
  • 5af86c8ca7 store settings and check webui status jtydhr88 2023-05-21 07:55:39 -04:00
  • e7673fe8d8 add mask/inpaint/outpaint support jtydhr88 2023-05-20 10:09:53 -04:00
  • 47f769b295 add cfg scale jtydhr88 2023-05-20 08:17:03 -04:00
  • a737c19541 add init image(img2img) support jtydhr88 2023-05-19 21:55:58 -04:00
  • 05ee9fbd2a bug fix jtydhr88 2023-05-19 21:43:02 -04:00
  • 057c68fff3 add a setting for webui host url jtydhr88 2023-05-19 20:35:35 -04:00